Weather in Chkalovskiy

Russia / Kemerovo Oblast     54°41′17″N   85°57′19″E
temp.,
°C
wind,
m/s
gust,
m/s
humid.,
%
clouds,
%
prec.,
mm/h
press.,
hPa
HPBL,
m
4 december, sat
sat401:00+1w8138698 1.1 1015974
04:00−2wsw7137957 0.0 1018412
07:00−3sw71482100 0.0 1021547
10:00−4sw71584100 0.0 1022700
13:00−3sw81586100 0.2 1022872
16:00−3wsw71386100 0.1 1024904
19:00−5wsw7138588 0.2 1027590
22:00−7wsw51189100 0.0 1030416
5 december, sun
sun501:00−11ssw389379 0.0 1032100
04:00−12ssw379582 0.0 103385
07:00−11s4796100 0.0 1032112
10:00−10sse4896100 0.0 1030159
13:00−6s4109596 0.0 1028357
16:00−5s4109219 0.0 1026292
19:00−8s499483 0.0 1026150
22:00−4ssw51093100 0.0 1024350
6 december, mon
mon601:00−3ssw51093100 0.0 1023289
04:00−5s599454 0.0 1022197
07:00−5s4995100 0.0 1021198
10:00−3ssw41096100 0.3 1021316
13:00−3ssw51192100 1.1 1020342
16:00−3s4991100 0.2 1019361
19:00−3s51086100 0.3 1018321
22:00−4s4893100 0.0 1018208
7 december, tue
tue701:00−2ssw41197100 1.1 1017601
04:00−2ssw51296100 2.2 1016683
07:00−1sw61291100 2.4 1016888
10:00−2wsw61197100 1.2 1017796
13:00−2wsw51092100 2.4 1018687
16:00−4w61190100 0.1 1020768
19:00−9w6119094 0.3 1025488
22:00−12w5109295 0.1 1029308
8 december, wed
wed801:00−19wsw2410099 0.1 103336
04:00−24sw2210072 0.0 103510
07:00−27s2210074 0.0 103712
10:00−27ssw2210040 0.0 103920
13:00−19sw25935 0.0 1038136
16:00−21s229753 0.0 103828
19:00−22ssw3791100 0.0 104086
22:00−20sw3598100 0.1 1041122